EW2812 Weather Reports


time (UTC)temp
C
wind
direction
speed
KPH
gust
KPH
rain 1hr
cm
rain 24hr
cm
rain mn
cm
humidity
%
barometer
mb
20260507114547 -17 67 0.0 0.0 0.00 0.36 0.00 1016.0
20260507113048 -17 55 0.0 0.0 0.00 0.36 0.00 1016.0
20260507111544 -17 79 0.0 0.0 0.00 0.36 0.00 1016.0
20260507110050 -17 50 0.0 0.0 0.00 0.36 0.00 1016.2
20260507104535 -17 128 0.0 0.0 0.00 0.36 0.00 1016.1
20260507103032 -17 130 0.0 0.0 0.00 0.36 0.00 1016.2
20260507101533 -17 91 0.0 0.0 0.00 0.36 0.00 1016.3
20260507100028 -17 42 0.0 0.0 0.00 0.36 0.00 1016.3
20260507094522 -17 51 0.0 0.0 0.00 0.36 0.00 1016.2
20260507093016 -17 129 0.0 0.0 0.00 0.36 0.00 1016.2
20260507091512 -17 169 0.0 0.0 0.00 0.36 0.00 1016.2
20260507090007 -17 166 0.0 0.0 0.00 0.36 0.00 1016.1
20260507084503 -17 77 0.0 0.0 0.00 0.36 0.00 1016.2
20260507083101 -17 70 0.0 0.0 0.00 0.36 0.36 1016.1
20260507081556 -17 70 0.0 0.0 0.00 0.36 0.36 1016.0
20260507080052 -17 69 0.0 0.0 0.00 0.36 0.36 1016.0
20260507074548 -17 0.0 0.0 0.00 0.36 0.36 1015.9
20260507073045 -17 69 0.0 0.0 0.00 0.36 0.36 1015.8
20260507071540 -17 69 0.0 0.0 0.00 0.36 0.36 1015.8
20260507070046 -17 69 0.0 0.0 0.00 0.36 0.36 1015.7
20260507064536 -17 69 0.0 0.0 0.00 0.36 0.36 1015.7
20260507063034 -17 69 0.0 0.0 0.00 0.36 0.36 1015.6
20260507061527 -17 69 0.0 0.0 0.00 0.36 0.36 1015.6
20260507060022 -17 69 0.0 0.0 0.00 0.36 0.36 1015.4
20260507054518 -17 69 0.0 0.0 0.00 0.36 0.36 1015.3
20260507053008 -17 69 0.0 0.0 0.00 0.36 0.36 1015.2
20260507051504 -17 69 0.0 0.0 0.00 0.36 0.36 1015.2
20260507050103 -17 69 0.0 0.0 0.00 0.36 0.36 1015.1
20260507044557 -17 69 0.0 0.0 0.00 0.36 0.36 1015.0
20260507043001 -17 69 0.0 0.0 0.00 0.36 0.36 1014.9
20260507041601 -17 69 0.0 0.0 0.00 0.36 0.36 1014.9
20260507040053 -17 68 0.0 0.0 0.00 0.36 0.36 1014.8
20260507034558 -17 69 0.0 0.0 0.00 0.36 0.36 1014.8
20260507033048 -17 69 0.0 0.0 0.00 0.36 0.36 1014.7
20260507031543 -17 69 0.0 0.0 0.00 0.36 0.36 1014.8
20260507030040 -17 69 0.0 0.0 0.00 0.36 0.36 1014.8
20260507024549 -17 69 0.0 0.0 0.00 0.36 0.36 1014.6
20260507023000 -17 69 0.0 0.0 0.00 0.36 0.36 1014.6
20260507021559 -17 69 0.0 0.0 0.00 0.36 0.36 1014.5
20260507020051 -17 69 0.0 0.0 0.00 0.36 0.36 1014.5
20260507014543 -17 69 0.0 0.0 0.00 0.36 0.36 1014.5
20260507013035 -17 68 0.0 0.0 0.00 0.36 0.36 1014.4
20260507011539 -17 69 0.0 0.0 0.00 0.36 0.36 1014.5
20260507010026 -17 69 0.0 0.0 0.00 0.36 0.36 1014.5
20260507004521 -17 68 0.0 0.0 0.00 0.36 0.36 1014.4
20260507003018 -17 69 0.0 0.0 0.00 0.36 0.36 1014.4
20260507001516 -17 69 0.0 0.0 0.00 0.36 0.36 1014.4
20260507000012 -17 69 0.0 0.0 0.00 0.36 0.36 1014.5
20260506234507 -17 69 0.0 0.0 0.00 0.36 0.36 1014.5
20260506233002 -17 69 0.0 0.0 0.00 0.36 0.36 1014.5
20260506231558 -17 69 0.0 0.0 0.00 0.36 0.36 1014.4
20260506230004 -17 69 0.0 0.0 0.00 0.36 0.36 1014.4
20260506224559 -17 69 0.0 0.0 0.00 0.36 0.36 1014.3
20260506223059 -17 69 0.0 0.0 0.00 0.36 0.36 1014.3
20260506221551 -17 69 0.0 0.0 0.00 0.36 0.36 1014.2
20260506214539 -17 69 0.0 0.0 0.08 0.36 0.36 1014.2
20260506213035 -17 69 0.0 0.0 0.15 0.36 0.36 1014.1
20260506211534 -17 69 0.0 0.0 0.15 0.36 0.36 1014.0
20260506204523 -17 78 0.0 0.0 0.05 0.28 0.28 1014.1
20260506203015 -17 22 0.0 0.0 0.00 0.23 0.23 1013.9
20260506201512 -17 29 0.0 0.0 0.00 0.23 0.23 1013.6
20260506194505 -17 29 0.0 0.0 0.00 0.23 0.23 1013.5
20260506193100 -17 29 0.0 0.0 0.00 0.23 0.23 1013.3
20260506191558 -17 29 0.0 0.0 0.00 0.23 0.23 1013.2
20260506184547 -17 29 0.0 0.0 0.05 0.23 0.23 1013.0
20260506183044 -17 29 0.0 0.0 0.13 0.23 0.23 1012.9
20260506181538 -17 29 0.0 0.0 0.18 0.23 0.23 1012.9
20260506174544 -17 29 0.0 0.0 0.15 0.18 0.18 1012.7
20260506173036 -17 29 0.0 0.0 0.08 0.13 0.13 1012.6
20260506171533 -17 29 0.0 0.0 0.03 0.05 0.05 1012.5
20260506164517 -17 29 0.0 0.0 0.00 0.05 0.05 1012.4
20260506163012 -17 29 0.0 0.0 0.03 0.05 0.05 1012.4
20260506161507 -17 29 0.0 0.0 0.03 0.05 0.05 1012.4
20260506154602 -17 29 0.0 0.0 0.05 0.05 0.05 1012.5
20260506153056 -17 30 0.0 0.0 0.03 0.03 0.03 1012.6
20260506151551 -17 28 0.0 0.0 0.03 0.03 0.03 1012.5
20260506144608 -17 126 0.0 0.0 0.00 0.00 0.00 1012.5
20260506143053 -17 336 0.0 0.0 0.00 0.00 0.00 1012.3
20260506141543 -17 336 0.0 0.0 0.00 0.00 0.00 1012.2
20260506134534 -17 336 0.0 0.0 0.00 0.00 0.00 1012.3
20260506133024 -17 18 0.0 0.0 0.00 0.00 0.00 1012.3
20260506131532 -17 18 0.0 0.0 0.00 0.00 0.00 1012.3
20260506124519 -17 18 0.0 0.0 0.00 0.00 0.00 1012.3
20260506123019 -17 297 0.0 0.0 0.00 0.00 0.00 1012.1
20260506121510 -17 292 0.0 0.0 0.00 0.00 0.00 1012.1